Year,Month,Day,Hour,Minute,Value (Times are PST for temperature in C)
2007,06,16,00,00,9.90
2007,06,16,00,01,9.90
2007,06,16,00,02,9.90
2007,06,16,00,03,9.90
2007,06,16,00,04,9.80
2007,06,16,00,05,9.80
2007,06,16,00,06,9.80
2007,06,16,00,07,9.80
2007,06,16,00,08,9.80
2007,06,16,00,09,9.80
2007,06,16,00,10,9.80
2007,06,16,00,11,9.80
2007,06,16,00,12,9.80
2007,06,16,00,13,9.80
2007,06,16,00,14,9.80
2007,06,16,00,15,9.70
2007,06,16,00,16,9.70
2007,06,16,00,17,9.70
2007,06,16,00,18,9.70
2007,06,16,00,19,9.70
2007,06,16,00,20,9.70
2007,06,16,00,21,9.70
2007,06,16,00,22,9.70
2007,06,16,00,23,9.70
2007,06,16,00,24,9.70
2007,06,16,00,25,9.70
2007,06,16,00,26,9.70
2007,06,16,00,27,9.70
2007,06,16,00,28,9.70
2007,06,16,00,29,9.70
2007,06,16,00,30,9.70
2007,06,16,00,31,9.70
2007,06,16,00,32,9.70
2007,06,16,00,33,9.70
2007,06,16,00,34,9.60
2007,06,16,00,35,9.60
2007,06,16,00,36,9.60
2007,06,16,00,37,9.60
2007,06,16,00,38,9.60
2007,06,16,00,39,9.60
2007,06,16,00,40,9.60
2007,06,16,00,41,9.60
2007,06,16,00,42,9.70
2007,06,16,00,43,9.70
2007,06,16,00,44,9.70
2007,06,16,00,45,9.70
2007,06,16,00,46,9.70
2007,06,16,00,47,9.70
2007,06,16,00,48,9.70
2007,06,16,00,49,9.70
2007,06,16,00,50,9.70
2007,06,16,00,51,9.70
2007,06,16,00,52,9.70
2007,06,16,00,53,9.70
2007,06,16,00,54,9.70
2007,06,16,00,55,9.70
2007,06,16,00,56,9.70
2007,06,16,00,57,9.70
2007,06,16,00,58,9.70
2007,06,16,00,59,9.70
2007,06,16,01,00,9.70
2007,06,16,01,01,9.70
2007,06,16,01,02,9.70
2007,06,16,01,03,9.80
2007,06,16,01,04,9.90
2007,06,16,01,05,9.90
2007,06,16,01,06,10.00
2007,06,16,01,07,10.00
2007,06,16,01,08,10.00
2007,06,16,01,09,10.10
2007,06,16,01,10,10.10
2007,06,16,01,11,10.10
2007,06,16,01,12,10.20
2007,06,16,01,13,10.20
2007,06,16,01,14,10.10
2007,06,16,01,15,10.10
2007,06,16,01,16,10.10
2007,06,16,01,17,10.10
2007,06,16,01,18,10.10
2007,06,16,01,19,10.10
2007,06,16,01,20,10.10
2007,06,16,01,21,10.00
2007,06,16,01,22,10.00
2007,06,16,01,23,9.90
2007,06,16,01,24,9.90
2007,06,16,01,25,9.90
2007,06,16,01,26,9.90
2007,06,16,01,27,9.90
2007,06,16,01,28,9.90
2007,06,16,01,29,9.90
2007,06,16,01,30,9.90
2007,06,16,01,31,9.90
2007,06,16,01,32,9.90
2007,06,16,01,33,9.90
2007,06,16,01,34,10.00
2007,06,16,01,35,10.00
2007,06,16,01,36,10.00
2007,06,16,01,37,10.00
2007,06,16,01,38,10.00
2007,06,16,01,39,10.10
2007,06,16,01,40,10.10
2007,06,16,01,41,10.10
2007,06,16,01,42,10.10
2007,06,16,01,43,10.20
2007,06,16,01,44,10.20
2007,06,16,01,45,10.10
2007,06,16,01,46,10.10
2007,06,16,01,47,10.10
2007,06,16,01,48,10.10
2007,06,16,01,49,10.10
2007,06,16,01,50,10.10
2007,06,16,01,51,10.10
2007,06,16,01,52,10.10
2007,06,16,01,53,10.10
2007,06,16,01,54,10.10
2007,06,16,01,55,10.00
2007,06,16,01,56,10.00
2007,06,16,01,57,9.90
2007,06,16,01,58,9.90
2007,06,16,01,59,9.90
2007,06,16,02,00,9.90
2007,06,16,02,01,9.90
2007,06,16,02,02,10.00
2007,06,16,02,03,10.10
2007,06,16,02,04,10.10
2007,06,16,02,05,10.20
2007,06,16,02,06,10.20
2007,06,16,02,07,10.30
2007,06,16,02,08,10.30
2007,06,16,02,09,10.30
2007,06,16,02,10,10.40
2007,06,16,02,11,10.40
2007,06,16,02,12,10.40
2007,06,16,02,13,10.40
2007,06,16,02,14,10.40
2007,06,16,02,15,10.40
2007,06,16,02,16,10.40
2007,06,16,02,17,10.40
2007,06,16,02,18,10.30
2007,06,16,02,19,10.30
2007,06,16,02,20,10.30
2007,06,16,02,21,10.30
2007,06,16,02,22,10.30
2007,06,16,02,23,10.30
2007,06,16,02,24,10.30
2007,06,16,02,25,10.30
2007,06,16,02,26,10.30
2007,06,16,02,27,10.30
2007,06,16,02,28,10.30
2007,06,16,02,29,10.30
2007,06,16,02,30,10.20
2007,06,16,02,31,10.20
2007,06,16,02,32,10.20
2007,06,16,02,33,10.20
2007,06,16,02,34,10.20
2007,06,16,02,35,10.20
2007,06,16,02,36,10.20
2007,06,16,02,37,10.20
2007,06,16,02,38,10.20
2007,06,16,02,39,10.20
2007,06,16,02,40,10.20
2007,06,16,02,41,10.20
2007,06,16,02,42,10.20
2007,06,16,02,43,10.20
2007,06,16,02,44,10.10
2007,06,16,02,45,10.10
2007,06,16,02,46,10.10
2007,06,16,02,47,10.10
2007,06,16,02,48,10.10
2007,06,16,02,49,10.10
2007,06,16,02,50,10.10
2007,06,16,02,51,10.00
2007,06,16,02,52,10.00
2007,06,16,02,53,10.00
2007,06,16,02,54,10.00
2007,06,16,02,55,9.90
2007,06,16,02,56,9.90
2007,06,16,02,57,9.90
2007,06,16,02,58,9.90
2007,06,16,02,59,9.90
2007,06,16,03,00,9.90
2007,06,16,03,01,9.90
2007,06,16,03,02,9.90
2007,06,16,03,03,9.90
2007,06,16,03,04,9.90
2007,06,16,03,05,9.90
2007,06,16,03,06,9.90
2007,06,16,03,07,9.90
2007,06,16,03,08,9.90
2007,06,16,03,09,9.90
2007,06,16,03,10,9.90
2007,06,16,03,11,9.90
2007,06,16,03,12,9.80
2007,06,16,03,13,9.80
2007,06,16,03,14,9.80
2007,06,16,03,15,9.80
2007,06,16,03,16,9.70
2007,06,16,03,17,9.70
2007,06,16,03,18,9.70
2007,06,16,03,19,9.70
2007,06,16,03,20,9.70
2007,06,16,03,21,9.60
2007,06,16,03,22,9.60
2007,06,16,03,23,9.60
2007,06,16,03,24,9.60
2007,06,16,03,25,9.60
2007,06,16,03,26,9.60
2007,06,16,03,27,9.60
2007,06,16,03,28,9.60
2007,06,16,03,29,9.60
2007,06,16,03,30,9.60
2007,06,16,03,31,9.60
2007,06,16,03,32,9.60
2007,06,16,03,33,9.60
2007,06,16,03,34,9.60
2007,06,16,03,35,9.60
2007,06,16,03,36,9.60
2007,06,16,03,37,9.60
2007,06,16,03,38,9.60
2007,06,16,03,39,9.50
2007,06,16,03,40,9.50
2007,06,16,03,41,9.50
2007,06,16,03,42,9.50
2007,06,16,03,43,9.50
2007,06,16,03,44,9.50
2007,06,16,03,45,9.50
2007,06,16,03,46,9.50
2007,06,16,03,47,9.50
2007,06,16,03,48,9.50
2007,06,16,03,49,9.50
2007,06,16,03,50,9.50
2007,06,16,03,51,9.50
2007,06,16,03,52,9.40
2007,06,16,03,53,9.40
2007,06,16,03,54,9.40
2007,06,16,03,55,9.40
2007,06,16,03,56,9.40
2007,06,16,03,57,9.40
2007,06,16,03,58,9.40
2007,06,16,03,59,9.40
2007,06,16,04,00,9.30
2007,06,16,04,01,9.30
2007,06,16,04,02,9.30
2007,06,16,04,03,9.30
2007,06,16,04,04,9.30
2007,06,16,04,05,9.30
2007,06,16,04,06,9.30
2007,06,16,04,07,9.30
2007,06,16,04,08,9.30
2007,06,16,04,09,9.30
2007,06,16,04,10,9.30
2007,06,16,04,11,9.30
2007,06,16,04,12,9.30
2007,06,16,04,13,9.30
2007,06,16,04,14,9.30
2007,06,16,04,15,9.30
2007,06,16,04,16,9.30
2007,06,16,04,17,9.30
2007,06,16,04,18,9.30
2007,06,16,04,19,9.30
2007,06,16,04,20,9.30
2007,06,16,04,21,9.30
2007,06,16,04,22,9.30
2007,06,16,04,23,9.30
2007,06,16,04,24,9.30
2007,06,16,04,25,9.30
2007,06,16,04,26,9.30
2007,06,16,04,27,9.30
2007,06,16,04,28,9.30
2007,06,16,04,29,9.30
2007,06,16,04,30,9.30
2007,06,16,04,31,9.30
2007,06,16,04,32,9.40
2007,06,16,04,33,9.40
2007,06,16,04,34,9.40
2007,06,16,04,35,9.40
2007,06,16,04,36,9.40
2007,06,16,04,37,9.40
2007,06,16,04,38,9.40
2007,06,16,04,39,9.40
2007,06,16,04,40,9.40
2007,06,16,04,41,9.40
2007,06,16,04,42,9.50
2007,06,16,04,43,9.40
2007,06,16,04,44,9.50
2007,06,16,04,45,9.50
2007,06,16,04,46,9.50
2007,06,16,04,47,9.40
2007,06,16,04,48,9.40
2007,06,16,04,49,9.40
2007,06,16,04,50,9.40
2007,06,16,04,51,9.40
2007,06,16,04,52,9.40
2007,06,16,04,53,9.40
2007,06,16,04,54,9.40
2007,06,16,04,55,9.40
2007,06,16,04,56,9.40
2007,06,16,04,57,9.40
2007,06,16,04,58,9.40
2007,06,16,04,59,9.40
2007,06,16,05,00,9.40
2007,06,16,05,01,9.40
2007,06,16,05,02,9.40
2007,06,16,05,03,9.30
2007,06,16,05,04,9.30
2007,06,16,05,05,9.30
2007,06,16,05,06,9.30
2007,06,16,05,07,9.30
2007,06,16,05,08,9.30
2007,06,16,05,09,9.30
2007,06,16,05,10,9.30
2007,06,16,05,11,9.40
2007,06,16,05,12,9.40
2007,06,16,05,13,9.40
2007,06,16,05,14,9.40
2007,06,16,05,15,9.40
2007,06,16,05,16,9.40
2007,06,16,05,17,9.40
2007,06,16,05,18,9.40
2007,06,16,05,19,9.40
2007,06,16,05,20,9.40
2007,06,16,05,21,9.40
2007,06,16,05,22,9.40
2007,06,16,05,23,9.40
2007,06,16,05,24,9.40
2007,06,16,05,25,9.40
2007,06,16,05,26,9.40
2007,06,16,05,27,9.40
2007,06,16,05,28,9.40
2007,06,16,05,29,9.40
2007,06,16,05,30,9.40
2007,06,16,05,31,9.50
2007,06,16,05,32,9.50
2007,06,16,05,33,9.50
2007,06,16,05,34,9.50
2007,06,16,05,35,9.60
2007,06,16,05,36,9.60
2007,06,16,05,37,9.60
2007,06,16,05,38,9.60
2007,06,16,05,39,9.60
2007,06,16,05,40,9.60
2007,06,16,05,41,9.60
2007,06,16,05,42,9.60
2007,06,16,05,43,9.60
2007,06,16,05,44,9.60
2007,06,16,05,45,9.60
2007,06,16,05,46,9.60
2007,06,16,05,47,9.60
2007,06,16,05,48,9.60
2007,06,16,05,49,9.60
2007,06,16,05,50,9.60
2007,06,16,05,51,9.60
2007,06,16,05,52,9.60
2007,06,16,05,53,9.60
2007,06,16,05,54,9.60
2007,06,16,05,55,9.60
2007,06,16,05,56,9.60
2007,06,16,05,57,9.60
2007,06,16,05,58,9.60
2007,06,16,05,59,9.60
2007,06,16,06,00,9.60
2007,06,16,06,01,9.60
2007,06,16,06,02,9.60
2007,06,16,06,03,9.60
2007,06,16,06,04,9.60
2007,06,16,06,05,9.60
2007,06,16,06,06,9.50
2007,06,16,06,07,9.50
2007,06,16,06,08,9.50
2007,06,16,06,09,9.50
2007,06,16,06,10,9.40
2007,06,16,06,11,9.40
2007,06,16,06,12,9.40
2007,06,16,06,13,9.40
2007,06,16,06,14,9.40
2007,06,16,06,15,9.40
2007,06,16,06,16,9.40
2007,06,16,06,17,9.30
2007,06,16,06,18,9.30
2007,06,16,06,19,9.30
2007,06,16,06,20,9.30
2007,06,16,06,21,9.40
2007,06,16,06,22,9.40
2007,06,16,06,23,9.40
2007,06,16,06,24,9.40
2007,06,16,06,25,9.40
2007,06,16,06,26,9.50
2007,06,16,06,27,9.50
2007,06,16,06,28,9.50
2007,06,16,06,29,9.60
2007,06,16,06,30,9.60
2007,06,16,06,31,9.60
2007,06,16,06,32,9.60
2007,06,16,06,33,9.60
2007,06,16,06,34,9.70
2007,06,16,06,35,9.70
2007,06,16,06,36,9.70
2007,06,16,06,37,9.70
2007,06,16,06,38,9.80
2007,06,16,06,39,9.80
2007,06,16,06,40,9.80
2007,06,16,06,41,9.80
2007,06,16,06,42,9.80
2007,06,16,06,43,9.80
2007,06,16,06,44,9.80
2007,06,16,06,45,9.80
2007,06,16,06,46,9.80
2007,06,16,06,47,9.80
2007,06,16,06,48,9.90
2007,06,16,06,49,9.90
2007,06,16,06,50,9.90
2007,06,16,06,51,9.90
2007,06,16,06,52,9.90
2007,06,16,06,53,10.00
2007,06,16,06,54,10.00
2007,06,16,06,55,10.00
2007,06,16,06,56,10.00
2007,06,16,06,57,10.10
2007,06,16,06,58,10.10
2007,06,16,06,59,10.10
2007,06,16,07,00,10.10
2007,06,16,07,01,10.10
2007,06,16,07,02,10.20
2007,06,16,07,03,10.20
2007,06,16,07,04,10.20
2007,06,16,07,05,10.20
2007,06,16,07,06,10.30
2007,06,16,07,07,10.30
2007,06,16,07,08,10.30
2007,06,16,07,09,10.30
2007,06,16,07,10,10.40
2007,06,16,07,11,10.40
2007,06,16,07,12,10.40
2007,06,16,07,13,10.40
2007,06,16,07,14,10.40
2007,06,16,07,15,10.50
2007,06,16,07,16,10.50
2007,06,16,07,17,10.60
2007,06,16,07,18,10.60
2007,06,16,07,19,10.60
2007,06,16,07,20,10.60
2007,06,16,07,21,10.70
2007,06,16,07,22,10.70
2007,06,16,07,23,10.70
2007,06,16,07,24,10.70
2007,06,16,07,25,10.70
2007,06,16,07,26,10.80
2007,06,16,07,27,10.80
2007,06,16,07,28,10.80
2007,06,16,07,29,10.80
2007,06,16,07,30,10.80
2007,06,16,07,31,10.80
2007,06,16,07,32,10.80
2007,06,16,07,33,10.80
2007,06,16,07,34,10.90
2007,06,16,07,35,10.90
2007,06,16,07,36,10.90
2007,06,16,07,37,10.90
2007,06,16,07,38,10.90
2007,06,16,07,39,11.00
2007,06,16,07,40,11.00
2007,06,16,07,41,11.00
2007,06,16,07,42,11.00
2007,06,16,07,43,11.10
2007,06,16,07,44,11.10
2007,06,16,07,45,11.10
2007,06,16,07,46,11.20
2007,06,16,07,47,11.20
2007,06,16,07,48,11.20
2007,06,16,07,49,11.20
2007,06,16,07,50,11.30
2007,06,16,07,51,11.30
2007,06,16,07,52,11.30
2007,06,16,07,53,11.30
2007,06,16,07,54,11.30
2007,06,16,07,55,11.40
2007,06,16,07,56,11.40
2007,06,16,07,57,11.40
2007,06,16,07,58,11.50
2007,06,16,07,59,11.50
2007,06,16,08,00,11.50
2007,06,16,08,01,11.60
2007,06,16,08,02,11.60
2007,06,16,08,03,11.60
2007,06,16,08,04,11.60
2007,06,16,08,05,11.60
2007,06,16,08,06,11.60
2007,06,16,08,07,11.70
2007,06,16,08,08,11.70
2007,06,16,08,09,11.80
2007,06,16,08,10,11.90
2007,06,16,08,11,11.90
2007,06,16,08,12,12.00
2007,06,16,08,13,12.00
2007,06,16,08,14,12.00
2007,06,16,08,15,12.10
2007,06,16,08,16,12.10
2007,06,16,08,17,12.10
2007,06,16,08,18,12.10
2007,06,16,08,19,12.20
2007,06,16,08,20,12.20
2007,06,16,08,21,12.20
2007,06,16,08,22,12.30
2007,06,16,08,23,12.30
2007,06,16,08,24,12.40
2007,06,16,08,25,12.40
2007,06,16,08,26,12.40
2007,06,16,08,27,12.50
2007,06,16,08,28,12.50
2007,06,16,08,29,12.60
2007,06,16,08,30,12.60
2007,06,16,08,31,12.60
2007,06,16,08,32,12.60
2007,06,16,08,33,12.60
2007,06,16,08,34,12.60
2007,06,16,08,35,12.60
2007,06,16,08,36,12.70
2007,06,16,08,37,12.60
2007,06,16,08,38,12.60
2007,06,16,08,39,12.60
2007,06,16,08,40,12.60
2007,06,16,08,41,12.60
2007,06,16,08,42,12.60
2007,06,16,08,43,12.70
2007,06,16,08,44,12.70
2007,06,16,08,45,12.70
2007,06,16,08,46,12.70
2007,06,16,08,47,12.70
2007,06,16,08,48,12.70
2007,06,16,08,49,12.70
2007,06,16,08,50,12.70
2007,06,16,08,51,12.70
2007,06,16,08,52,12.80
2007,06,16,08,53,12.80
2007,06,16,08,54,12.80
2007,06,16,08,55,12.80
2007,06,16,08,56,12.80
2007,06,16,08,57,12.80
2007,06,16,08,58,12.80
2007,06,16,08,59,12.80
2007,06,16,09,00,12.80
2007,06,16,09,01,12.80
2007,06,16,09,02,12.80
2007,06,16,09,03,12.80
2007,06,16,09,04,12.80
2007,06,16,09,05,12.90
2007,06,16,09,06,12.90
2007,06,16,09,07,12.90
2007,06,16,09,08,12.90
2007,06,16,09,09,12.90
2007,06,16,09,10,12.90
2007,06,16,09,11,12.90
2007,06,16,09,12,12.80
2007,06,16,09,13,12.80
2007,06,16,09,14,12.80
2007,06,16,09,15,12.80
2007,06,16,09,16,12.80
2007,06,16,09,17,12.80
2007,06,16,09,18,12.80
2007,06,16,09,19,12.80
2007,06,16,09,20,12.80
2007,06,16,09,21,12.80
2007,06,16,09,22,12.80
2007,06,16,09,23,12.80
2007,06,16,09,24,12.90
2007,06,16,09,25,12.90
2007,06,16,09,26,13.00
2007,06,16,09,27,13.00
2007,06,16,09,28,13.00
2007,06,16,09,29,13.00
2007,06,16,09,30,13.10
2007,06,16,09,31,13.10
2007,06,16,09,32,13.20
2007,06,16,09,33,13.30
2007,06,16,09,34,13.40
2007,06,16,09,35,13.50
2007,06,16,09,36,13.60
2007,06,16,09,37,13.70
2007,06,16,09,38,13.70
2007,06,16,09,39,13.70
2007,06,16,09,40,13.80
2007,06,16,09,41,13.80
2007,06,16,09,42,13.70
2007,06,16,09,43,13.70
2007,06,16,09,44,13.70
2007,06,16,09,45,13.70
2007,06,16,09,46,13.70
2007,06,16,09,47,13.70
2007,06,16,09,48,13.80
2007,06,16,09,49,13.80
2007,06,16,09,50,13.80
2007,06,16,09,51,13.80
2007,06,16,09,52,13.80
2007,06,16,09,53,13.70
2007,06,16,09,54,13.70
2007,06,16,09,55,13.70
2007,06,16,09,56,13.70
2007,06,16,09,57,13.70
2007,06,16,09,58,13.70
2007,06,16,09,59,13.60
2007,06,16,10,00,13.60
2007,06,16,10,01,13.60
2007,06,16,10,02,13.60
2007,06,16,10,03,13.60
2007,06,16,10,04,13.60
2007,06,16,10,05,13.60
2007,06,16,10,06,13.60
2007,06,16,10,07,13.60
2007,06,16,10,08,13.60
2007,06,16,10,09,13.60
2007,06,16,10,10,13.60
2007,06,16,10,11,13.60
2007,06,16,10,12,13.60
2007,06,16,10,13,13.60
2007,06,16,10,14,13.60
2007,06,16,10,15,13.60
2007,06,16,10,16,13.60
2007,06,16,10,17,13.60
2007,06,16,10,18,13.60
2007,06,16,10,19,13.60
2007,06,16,10,20,13.60
2007,06,16,10,21,13.60
2007,06,16,10,22,13.60
2007,06,16,10,23,13.60
2007,06,16,10,24,13.60
2007,06,16,10,25,13.70
2007,06,16,10,26,13.70
2007,06,16,10,27,13.80
2007,06,16,10,28,13.80
2007,06,16,10,29,13.80
2007,06,16,10,30,13.90
2007,06,16,10,31,13.90
2007,06,16,10,32,14.00
2007,06,16,10,33,14.10
2007,06,16,10,34,14.10
2007,06,16,10,35,14.10
2007,06,16,10,36,14.10
2007,06,16,10,37,14.10
2007,06,16,10,38,14.20
2007,06,16,10,39,14.20
2007,06,16,10,40,14.20
2007,06,16,10,41,14.10
2007,06,16,10,42,14.10
2007,06,16,10,43,14.10
2007,06,16,10,44,14.20
2007,06,16,10,45,14.20
2007,06,16,10,46,14.30
2007,06,16,10,47,14.30
2007,06,16,10,48,14.30
2007,06,16,10,49,14.30
2007,06,16,10,50,14.30
2007,06,16,10,51,14.30
2007,06,16,10,52,14.30
2007,06,16,10,53,14.30
2007,06,16,10,54,14.30
2007,06,16,10,55,14.30
2007,06,16,10,56,14.40
2007,06,16,10,57,14.40
2007,06,16,10,58,14.50
2007,06,16,10,59,14.50
2007,06,16,11,00,14.60
2007,06,16,11,01,14.70
2007,06,16,11,02,14.70
2007,06,16,11,03,14.70
2007,06,16,11,04,14.70
2007,06,16,11,05,14.70
2007,06,16,11,06,14.70
2007,06,16,11,07,14.70
2007,06,16,11,08,14.80
2007,06,16,11,09,14.80
2007,06,16,11,10,14.90
2007,06,16,11,11,15.00
2007,06,16,11,12,15.00
2007,06,16,11,13,15.00
2007,06,16,11,14,15.20
2007,06,16,11,15,15.20
2007,06,16,11,16,15.30
2007,06,16,11,17,15.30
2007,06,16,11,18,15.30
2007,06,16,11,19,15.30
2007,06,16,11,20,15.30
2007,06,16,11,21,15.30
2007,06,16,11,22,15.30
2007,06,16,11,23,15.30
2007,06,16,11,24,15.30
2007,06,16,11,25,15.30
2007,06,16,11,26,15.30
2007,06,16,11,27,15.30
2007,06,16,11,28,15.40
2007,06,16,11,29,15.30
2007,06,16,11,30,15.30
2007,06,16,11,31,15.30
2007,06,16,11,32,15.30
2007,06,16,11,33,15.20
2007,06,16,11,34,15.30
2007,06,16,11,35,15.30
2007,06,16,11,36,15.30
2007,06,16,11,37,15.30
2007,06,16,11,38,15.30
2007,06,16,11,39,15.30
2007,06,16,11,40,15.30
2007,06,16,11,41,15.30
2007,06,16,11,42,15.20
2007,06,16,11,43,15.20
2007,06,16,11,44,15.10
2007,06,16,11,45,15.00
2007,06,16,11,46,15.00
2007,06,16,11,47,15.00
2007,06,16,11,48,15.00
2007,06,16,11,49,15.00
2007,06,16,11,50,15.00
2007,06,16,11,51,14.90
2007,06,16,11,52,14.90
2007,06,16,11,53,14.90
2007,06,16,11,54,14.90
2007,06,16,11,55,14.90
2007,06,16,11,56,14.90
2007,06,16,11,57,14.90
2007,06,16,11,58,14.90
2007,06,16,11,59,15.00
2007,06,16,12,00,15.00
2007,06,16,12,01,15.00
2007,06,16,12,02,15.00
2007,06,16,12,03,15.00
2007,06,16,12,04,15.00
2007,06,16,12,05,15.00
2007,06,16,12,06,15.00
2007,06,16,12,07,15.00
2007,06,16,12,08,15.00
2007,06,16,12,09,15.00
2007,06,16,12,10,15.00
2007,06,16,12,11,15.00
2007,06,16,12,12,15.00
2007,06,16,12,13,15.10
2007,06,16,12,14,15.10
2007,06,16,12,15,15.10
2007,06,16,12,16,15.00
2007,06,16,12,17,15.00
2007,06,16,12,18,15.00
2007,06,16,12,19,15.00
2007,06,16,12,20,15.00
2007,06,16,12,21,15.00
2007,06,16,12,22,15.00
2007,06,16,12,23,14.80
2007,06,16,12,24,14.70
2007,06,16,12,25,14.70
2007,06,16,12,26,14.60
2007,06,16,12,27,14.60
2007,06,16,12,28,14.70
2007,06,16,12,29,14.70
2007,06,16,12,30,14.70
2007,06,16,12,31,14.70
2007,06,16,12,32,14.70
2007,06,16,12,33,14.60
2007,06,16,12,34,14.60
2007,06,16,12,35,14.60
2007,06,16,12,36,14.70
2007,06,16,12,37,14.70
2007,06,16,12,38,14.70
2007,06,16,12,39,14.70
2007,06,16,12,40,14.70
2007,06,16,12,41,14.80
2007,06,16,12,42,14.80
2007,06,16,12,43,14.80
2007,06,16,12,44,14.80
2007,06,16,12,45,14.90
2007,06,16,12,46,14.90
2007,06,16,12,47,14.90
2007,06,16,12,48,14.90
2007,06,16,12,49,14.90
2007,06,16,12,50,14.90
2007,06,16,12,51,15.00
2007,06,16,12,52,15.00
2007,06,16,12,53,15.00
2007,06,16,12,54,15.00
2007,06,16,12,55,15.00
2007,06,16,12,56,15.00
2007,06,16,12,57,15.00
2007,06,16,12,58,15.00
2007,06,16,12,59,15.00
2007,06,16,13,00,15.00
2007,06,16,13,01,15.00
2007,06,16,13,02,15.00
2007,06,16,13,03,15.00
2007,06,16,13,04,15.00
2007,06,16,13,05,15.00
2007,06,16,13,06,15.00
2007,06,16,13,07,15.00
2007,06,16,13,08,15.00
2007,06,16,13,09,15.00
2007,06,16,13,10,15.00
2007,06,16,13,11,15.00
2007,06,16,13,12,15.00
2007,06,16,13,13,15.00
2007,06,16,13,14,15.00
2007,06,16,13,15,15.00
2007,06,16,13,16,15.00
2007,06,16,13,17,15.00
2007,06,16,13,18,15.00
2007,06,16,13,19,15.00
2007,06,16,13,20,15.00
2007,06,16,13,21,15.00
2007,06,16,13,22,15.00
2007,06,16,13,23,15.00
2007,06,16,13,24,15.00
2007,06,16,13,25,15.00
2007,06,16,13,26,15.00
2007,06,16,13,27,15.00
2007,06,16,13,28,15.00
2007,06,16,13,29,15.00
2007,06,16,13,30,15.10
2007,06,16,13,31,15.10
2007,06,16,13,32,15.10
2007,06,16,13,33,15.20
2007,06,16,13,34,15.20
2007,06,16,13,35,15.30
2007,06,16,13,36,15.30
2007,06,16,13,37,15.40
2007,06,16,13,38,15.50
2007,06,16,13,39,15.50
2007,06,16,13,40,15.60
2007,06,16,13,41,15.60
2007,06,16,13,42,15.60
2007,06,16,13,43,15.60
2007,06,16,13,44,15.60
2007,06,16,13,45,15.60
2007,06,16,13,46,15.60
2007,06,16,13,47,15.60
2007,06,16,13,48,15.60
2007,06,16,13,49,15.60
2007,06,16,13,50,15.60
2007,06,16,13,51,15.60
2007,06,16,13,52,15.60
2007,06,16,13,53,15.50
2007,06,16,13,54,15.40
2007,06,16,13,55,15.40
2007,06,16,13,56,15.40
2007,06,16,13,57,15.40
2007,06,16,13,58,15.40
2007,06,16,13,59,15.40
2007,06,16,14,00,15.40
2007,06,16,14,01,15.40
2007,06,16,14,02,15.30
2007,06,16,14,03,15.40
2007,06,16,14,04,15.40
2007,06,16,14,05,15.40
2007,06,16,14,06,15.40
2007,06,16,14,07,15.40
2007,06,16,14,08,15.40
2007,06,16,14,09,15.40
2007,06,16,14,10,15.40
2007,06,16,14,11,15.40
2007,06,16,14,12,15.40
2007,06,16,14,13,15.40
2007,06,16,14,14,15.40
2007,06,16,14,15,15.40
2007,06,16,14,16,15.30
2007,06,16,14,17,15.30
2007,06,16,14,18,15.30
2007,06,16,14,19,15.30
2007,06,16,14,20,15.30
2007,06,16,14,21,15.30
2007,06,16,14,22,15.30
2007,06,16,14,23,15.30
2007,06,16,14,24,15.30
2007,06,16,14,25,15.30
2007,06,16,14,26,15.30
2007,06,16,14,27,15.20
2007,06,16,14,28,15.20
2007,06,16,14,29,15.30
2007,06,16,14,30,15.30
2007,06,16,14,31,15.30
2007,06,16,14,32,15.30
2007,06,16,14,33,15.30
2007,06,16,14,34,15.30
2007,06,16,14,35,15.30
2007,06,16,14,36,15.30
2007,06,16,14,37,15.30
2007,06,16,14,38,15.30
2007,06,16,14,39,15.30
2007,06,16,14,40,15.30
2007,06,16,14,41,15.30
2007,06,16,14,42,15.30
2007,06,16,14,43,15.30
2007,06,16,14,44,15.30
2007,06,16,14,45,15.30
2007,06,16,14,46,15.40
2007,06,16,14,47,15.30
2007,06,16,14,48,15.30
2007,06,16,14,49,15.30
2007,06,16,14,50,15.30
2007,06,16,14,51,15.30
2007,06,16,14,52,15.30
2007,06,16,14,53,15.30
2007,06,16,14,54,15.30
2007,06,16,14,55,15.30
2007,06,16,14,56,15.20
2007,06,16,14,57,15.20
2007,06,16,14,58,15.20
2007,06,16,14,59,15.20
2007,06,16,15,00,15.20
2007,06,16,15,01,15.20
2007,06,16,15,02,15.20
2007,06,16,15,03,15.30
2007,06,16,15,04,15.30
2007,06,16,15,05,15.30
2007,06,16,15,06,15.40
2007,06,16,15,07,15.40
2007,06,16,15,08,15.40
2007,06,16,15,09,15.50
2007,06,16,15,10,15.50
2007,06,16,15,11,15.60
2007,06,16,15,12,15.60
2007,06,16,15,13,15.50
2007,06,16,15,14,15.50
2007,06,16,15,15,15.50
2007,06,16,15,16,15.50
2007,06,16,15,17,15.40
2007,06,16,15,18,15.40
2007,06,16,15,19,15.40
2007,06,16,15,20,15.40
2007,06,16,15,21,15.40
2007,06,16,15,22,15.50
2007,06,16,15,23,15.50
2007,06,16,15,24,15.50
2007,06,16,15,25,15.60
2007,06,16,15,26,15.60
2007,06,16,15,27,15.60
2007,06,16,15,28,15.70
2007,06,16,15,29,15.70
2007,06,16,15,30,15.70
2007,06,16,15,31,15.70
2007,06,16,15,32,15.80
2007,06,16,15,33,15.90
2007,06,16,15,34,15.90
2007,06,16,15,35,16.00
2007,06,16,15,36,16.10
2007,06,16,15,37,16.20
2007,06,16,15,38,16.30
2007,06,16,15,39,16.30
2007,06,16,15,40,16.30
2007,06,16,15,41,16.40
2007,06,16,15,42,16.30
2007,06,16,15,43,16.40
2007,06,16,15,44,16.40
2007,06,16,15,45,16.40
2007,06,16,15,46,16.40
2007,06,16,15,47,16.40
2007,06,16,15,48,16.40
2007,06,16,15,49,16.30
2007,06,16,15,50,16.30
2007,06,16,15,51,16.30
2007,06,16,15,52,16.20
2007,06,16,15,53,16.10
2007,06,16,15,54,16.00
2007,06,16,15,55,15.90
2007,06,16,15,56,15.70
2007,06,16,15,57,15.70
2007,06,16,15,58,15.60
2007,06,16,15,59,15.60
2007,06,16,16,00,15.60
2007,06,16,16,01,15.60
2007,06,16,16,02,15.60
2007,06,16,16,03,15.50
2007,06,16,16,04,15.50
2007,06,16,16,05,15.50
2007,06,16,16,06,15.40
2007,06,16,16,07,15.40
2007,06,16,16,08,15.40
2007,06,16,16,09,15.40
2007,06,16,16,10,15.30
2007,06,16,16,11,15.30
2007,06,16,16,12,15.30
2007,06,16,16,13,15.20
2007,06,16,16,14,15.20
2007,06,16,16,15,15.20
2007,06,16,16,16,15.10
2007,06,16,16,17,15.10
2007,06,16,16,18,15.10
2007,06,16,16,19,15.00
2007,06,16,16,20,15.00
2007,06,16,16,21,15.00
2007,06,16,16,22,15.10
2007,06,16,16,23,15.10
2007,06,16,16,24,15.10
2007,06,16,16,25,15.10
2007,06,16,16,26,15.10
2007,06,16,16,27,15.10
2007,06,16,16,28,15.10
2007,06,16,16,29,15.10
2007,06,16,16,30,15.00
2007,06,16,16,31,15.00
2007,06,16,16,32,15.00
2007,06,16,16,33,15.00
2007,06,16,16,34,15.00
2007,06,16,16,35,15.00
2007,06,16,16,36,15.00
2007,06,16,16,37,15.00
2007,06,16,16,38,15.00
2007,06,16,16,39,15.00
2007,06,16,16,40,15.00
2007,06,16,16,41,15.00
2007,06,16,16,42,15.00
2007,06,16,16,43,14.90
2007,06,16,16,44,14.90
2007,06,16,16,45,14.80
2007,06,16,16,46,14.80
2007,06,16,16,47,14.70
2007,06,16,16,48,14.70
2007,06,16,16,49,14.70
2007,06,16,16,50,14.70
2007,06,16,16,51,14.60
2007,06,16,16,52,14.60
2007,06,16,16,53,14.60
2007,06,16,16,54,14.60
2007,06,16,16,55,14.50
2007,06,16,16,56,14.50
2007,06,16,16,57,14.50
2007,06,16,16,58,14.50
2007,06,16,16,59,14.50
2007,06,16,17,00,14.50
2007,06,16,17,01,14.40
2007,06,16,17,02,14.40
2007,06,16,17,03,14.30
2007,06,16,17,04,14.30
2007,06,16,17,05,14.20
2007,06,16,17,06,14.20
2007,06,16,17,07,14.20
2007,06,16,17,08,14.20
2007,06,16,17,09,14.20
2007,06,16,17,10,14.10
2007,06,16,17,11,14.10
2007,06,16,17,12,14.10
2007,06,16,17,13,14.10
2007,06,16,17,14,14.10
2007,06,16,17,15,14.10
2007,06,16,17,16,14.10
2007,06,16,17,17,14.20
2007,06,16,17,18,14.20
2007,06,16,17,19,14.20
2007,06,16,17,20,14.20
2007,06,16,17,21,14.20
2007,06,16,17,22,14.20
2007,06,16,17,23,14.20
2007,06,16,17,24,14.20
2007,06,16,17,25,14.20
2007,06,16,17,26,14.20
2007,06,16,17,27,14.20
2007,06,16,17,28,14.30
2007,06,16,17,29,14.30
2007,06,16,17,30,14.20
2007,06,16,17,31,14.20
2007,06,16,17,32,14.20
2007,06,16,17,33,14.20